TimeCST,TemperatureF,Dew PointF,Humidity,Sea Level PressureIn,VisibilityMPH,Wind Direction,Wind SpeedMPH,Gust SpeedMPH,PrecipitationIn,Events,Conditions,WindDirDegrees,DateUTC
12:53 AM,39.0,30.9,73,29.78,10.0,West,13.8,19.6,N/A,,Overcast,270,2013-02-27 06:53:00
1:53 AM,39.0,30.9,73,29.78,10.0,West,8.1,-,N/A,,Overcast,270,2013-02-27 07:53:00
2:23 AM,39.2,30.2,70,29.74,10.0,West,6.9,-,N/A,,Overcast,270,2013-02-27 08:23:00
2:53 AM,39.0,30.0,70,29.78,10.0,West,10.4,-,N/A,,Overcast,260,2013-02-27 08:53:00
3:15 AM,39.2,30.2,70,29.77,10.0,WSW,10.4,-,N/A,,Overcast,250,2013-02-27 09:15:00
3:23 AM,39.2,30.2,70,29.77,10.0,West,8.1,-,N/A,,Overcast,260,2013-02-27 09:23:00
3:53 AM,39.0,30.0,70,29.79,10.0,WSW,10.4,-,N/A,,Overcast,250,2013-02-27 09:53:00
4:09 AM,39.2,30.2,70,29.79,10.0,West,6.9,-,N/A,,Overcast,260,2013-02-27 10:09:00
4:53 AM,39.0,28.9,67,29.82,10.0,WNW,12.7,20.7,N/A,,Overcast,290,2013-02-27 10:53:00
5:53 AM,39.0,28.9,67,29.84,10.0,West,12.7,18.4,N/A,,Overcast,270,2013-02-27 11:53:00
6:53 AM,37.9,28.0,68,29.84,10.0,West,8.1,-,N/A,,Overcast,280,2013-02-27 12:53:00
7:00 AM,37.4,28.4,70,29.83,10.0,West,6.9,-,N/A,,Overcast,280,2013-02-27 13:00:00
7:53 AM,39.0,28.0,65,29.86,10.0,West,6.9,-,N/A,,Overcast,270,2013-02-27 13:53:00
8:53 AM,39.9,28.0,63,29.87,10.0,West,12.7,17.3,N/A,,Overcast,270,2013-02-27 14:53:00
9:53 AM,41.0,28.9,62,29.87,10.0,West,10.4,-,N/A,,Overcast,270,2013-02-27 15:53:00
10:53 AM,41.0,28.9,62,29.88,10.0,West,11.5,19.6,N/A,,Overcast,270,2013-02-27 16:53:00
11:09 AM,41.0,28.4,61,29.87,10.0,WSW,13.8,18.4,N/A,,Overcast,250,2013-02-27 17:09:00
11:53 AM,39.9,28.9,65,29.89,10.0,West,13.8,19.6,N/A,,Overcast,270,2013-02-27 17:53:00
12:53 PM,39.9,30.0,68,29.88,10.0,West,13.8,21.9,N/A,,Overcast,270,2013-02-27 18:53:00
1:53 PM,41.0,30.0,65,29.87,10.0,WSW,12.7,20.7,N/A,,Overcast,250,2013-02-27 19:53:00
2:07 PM,41.0,28.4,61,29.86,10.0,West,13.8,25.3,N/A,,Overcast,270,2013-02-27 20:07:00
2:15 PM,41.0,30.2,65,29.86,10.0,West,11.5,20.7,N/A,,Overcast,260,2013-02-27 20:15:00
2:24 PM,41.0,30.2,65,29.86,10.0,West,11.5,19.6,N/A,,Overcast,280,2013-02-27 20:24:00
2:34 PM,41.0,28.4,61,29.86,10.0,West,15.0,23.0,N/A,,Overcast,260,2013-02-27 20:34:00
2:43 PM,42.8,28.4,57,29.86,10.0,West,11.5,20.7,N/A,,Overcast,270,2013-02-27 20:43:00
2:53 PM,41.0,28.9,62,29.88,10.0,West,12.7,-,N/A,,Overcast,270,2013-02-27 20:53:00
3:53 PM,42.1,28.0,58,29.90,10.0,WNW,12.7,-,N/A,,Overcast,290,2013-02-27 21:53:00
4:53 PM,41.0,28.0,60,29.90,10.0,WNW,11.5,20.7,N/A,,Overcast,290,2013-02-27 22:53:00
5:53 PM,41.0,28.0,60,29.91,10.0,West,11.5,19.6,N/A,,Overcast,280,2013-02-27 23:53:00
6:53 PM,39.9,28.9,65,29.94,10.0,West,9.2,-,N/A,,Overcast,280,2013-02-28 00:53:00
8:53 PM,39.0,28.0,65,29.95,10.0,West,9.2,-,0.00,,Overcast,280,2013-02-28 02:53:00
9:26 PM,37.4,28.4,70,29.94,10.0,WNW,12.7,20.7,N/A,,Overcast,290,2013-02-28 03:26:00
9:53 PM,37.9,28.0,68,29.96,10.0,WNW,10.4,-,N/A,,Overcast,290,2013-02-28 03:53:00
10:53 PM,37.9,27.0,65,29.95,10.0,West,5.8,-,N/A,,Overcast,270,2013-02-28 04:53:00
11:17 PM,37.4,26.6,65,29.93,10.0,WNW,10.4,18.4,N/A,,Overcast,300,2013-02-28 05:17:00
11:53 PM,37.9,26.1,62,29.95,10.0,WNW,8.1,-,N/A,,Overcast,290,2013-02-28 05:53:00